Wind_Speed
54 55 50 51 49 46 46 45 39 41 42 41 40 38 38 37 39 37 36 37 36 18 26 40 45 44 43 40 38 38 38 40 41 41 41 40 40 40 39 39 38 38 39 39 41 41 41 40 39
57 57 56 57 57 58 56 51 46 46 49 49 42 37 39 39 40 41 36 39 37 35 24 24 35 47 48 48 46 44 42 42 42 42 41 42 42 41 41 42 41 41 39 39 38 39 37 37 38
63 59 60 59 60 63 61 54 51 51 50 47 40 41 46 43 43 40 39 43 39 40 32 29 30 36 47 50 51 50 49 47 46 47 46 45 44 44 44 43 42 42 42 43 42 42 43 44 44
63 65 64 61 65 68 68 62 57 54 53 52 44 42 50 45 46 45 41 38 41 39 36 33 31 34 41 49 53 53 53 51 50 48 49 49 48 46 45 45 45 44 45 44 45 45 45 48 49
68 66 65 63 69 73 72 66 62 57 56 51 49 45 50 50 48 50 44 36 39 39 40 40 34 29 34 46 53 56 55 54 53 52 51 51 50 50 50 48 48 48 47 47 47 47 47 48 49
71 70 66 63 69 74 75 71 67 62 60 56 51 50 53 51 54 54 55 48 46 44 47 40 34 37 40 42 50 56 58 56 56 56 55 53 52 52 52 52 52 51 50 49 49 50 50 52 53
75 73 72 75 73 76 84 79 72 68 65 60 54 55 59 55 57 58 56 48 48 47 42 40 39 44 43 45 46 51 56 58 57 58 58 58 58 57 56 55 54 54 55 54 54 54 54 55 57
89 82 74 75 74 77 86 82 76 71 65 60 57 58 64 57 50 45 43 44 46 42 43 43 43 44 46 47 50 47 46 52 58 59 60 60 59 60 60 60 59 58 58 58 58 57 57 57 57
97 91 81 80 84 86 91 83 77 70 66 63 60 67 65 60 51 56 47 42 41 40 41 46 44 44 46 46 46 48 48 49 49 54 60 59 60 61 61 60 60 61 61 60 60 60 60 59 58
97 94 87 89 92 91 94 84 81 73 69 64 64 70 65 50 46 50 50 42 54 51 43 46 42 44 44 43 44 47 47 46 47 47 49 52 57 59 59 59 61 62 62 63 63 62 62 63 61
91 96 94 92 93 94 95 91 86 78 73 68 68 71 65 63 46 48 54 59 59 45 45 48 47 50 47 44 46 49 51 49 47 47 49 53 54 54 54 55 57 58 58 59 61 61 62 63 64
78 83 95 95 96 96 95 97 91 84 79 75 75 75 70 68 61 50 55 61 62 61 58 52 49 51 48 47 50 51 52 51 47 48 51 52 56 60 60 58 56 58 61 62 63 64 64 65 64
73 79 81 89 99 99 99 99 96 89 86 81 81 78 74 69 62 58 60 56 59 53 50 52 57 61 56 53 55 50 52 51 51 53 54 53 55 57 59 59 58 58 61 63 63 63 66 66 65
66 71 75 82 87 99 103 103 100 96 93 87 86 83 81 75 68 56 48 49 47 49 52 53 61 67 64 53 53 51 53 52 52 54 55 57 55 54 55 54 54 54 56 57 58 60 61 62 62
58 63 67 74 84 86 92 100 99 102 102 93 90 87 77 81 77 68 56 38 44 47 49 47 48 53 57 55 50 50 56 56 55 57 59 52 52 52 54 53 56 58 57 55 54 53 53 50 49
49 56 62 67 74 85 83 78 94 107 103 98 94 92 84 83 80 77 78 61 51 54 47 42 44 49 51 50 50 49 50 53 51 53 50 51 52 54 54 54 50 50 51 54 54 49 45 46 51
42 50 55 61 66 75 80 78 83 89 100 99 98 96 91 90 85 78 74 67 65 58 51 48 51 54 53 54 53 51 51 51 53 54 48 48 51 52 49 49 50 54 57 56 56 55 56 56 55
40 43 50 58 64 67 72 75 82 86 83 89 98 101 93 90 82 86 85 74 64 54 50 51 49 50 53 53 52 52 52 54 57 54 53 56 52 50 54 59 60 60 57 58 60 58 59 61 62
30 39 47 51 60 59 63 68 80 86 82 80 82 85 91 95 89 87 77 75 71 67 54 52 51 47 48 53 58 58 54 54 52 53 59 53 56 63 66 64 65 67 69 66 66 66 70 76 77
21 27 35 47 53 52 56 60 71 80 85 80 76 75 81 86 93 93 85 82 77 77 69 61 58 52 49 40 52 51 57 60 60 60 63 62 63 63 65 66 66 70 70 67 66 70 77 77 79
16 20 24 31 40 50 53 50 63 73 77 80 78 75 72 79 75 73 80 80 79 79 74 69 71 64 56 56 51 54 58 56 58 60 60 66 68 69 71 65 67 69 72 76 77 78 79 81 84
26 21 17 22 29 36 44 50 57 67 74 77 76 74 68 68 71 68 62 60 70 74 79 75 69 65 60 59 60 63 65 63 65 65 75 82 75 77 76 75 76 77 74 77 79 80 82 85 87
39 33 29 23 21 24 32 36 46 51 62 68 71 68 68 62 63 62 56 64 64 51 54 67 71 59 57 63 61 64 64 71 73 75 78 84 87 86 86 83 82 82 85 87 85 87 89 90 93
41 41 35 28 23 21 17 26 33 39 47 52 61 65 65 65 62 57 50 56 64 56 52 57 54 56 58 68 62 67 67 65 69 73 78 83 88 88 85 83 85 89 90 90 92 92 94 95 94
36 37 33 32 27 19 14 10 18 29 37 45 54 59 60 65 59 57 55 56 59 59 53 44 41 41 43 46 50 55 61 64 67 76 83 83 84 85 88 91 87 89 93 95 95 97 96 95 97
41 29 33 35 26 21 13 5 6 18 27 38 44 45 50 58 61 61 60 57 51 56 61 59 54 51 42 47 51 63 63 70 74 79 81 86 90 94 95 95 97 97 94 96 98 95 97 100 104
48 39 32 32 26 20 14 12 8 14 20 28 34 36 45 51 48 53 55 53 52 55 55 57 62 57 61 65 65 69 75 68 79 88 94 97 96 94 91 92 95 97 102 99 99 102 105 106 105
52 44 34 28 19 26 14 17 14 20 23 30 29 30 39 53 56 55 55 51 54 55 61 64 67 69 70 74 78 82 77 87 90 92 88 89 90 93 97 98 102 102 102 105 105 106 107 108 111
62 49 39 26 20 18 15 12 13 15 19 24 29 28 25 48 58 57 61 60 63 66 70 65 60 68 73 73 75 77 80 84 87 90 90 95 98 101 103 104 105 104 105 107 109 109 111 114 116
69 55 44 31 16 6 5 10 15 14 19 25 39 41 47 45 53 51 55 57 62 66 70 77 80 75 75 75 77 83 87 87 90 96 99 102 105 106 105 106 106 107 109 111 111 112 112 111 109
Wind_Direction
262 259 257 254 252 250 258 262 266 265 266 269 265 258 263 266 269 280 278 281 275 286 276 263 259 260 263 261 261 261 262 264 264 265 266 267 269 270 269 272 274 274 275 276 275 275 274 273 273
259 258 255 257 258 255 260 262 262 264 270 269 264 262 263 266 270 274 277 278 276 275 288 291 274 262 261 264 265 262 263 264 266 266 267 267 266 267 267 269 271 272 273 276 277 277 278 276 275
259 255 255 257 258 259 258 258 261 266 271 266 256 261 268 266 269 272 280 279 273 268 280 292 299 283 266 262 264 264 264 263 263 263 265 265 266 266 267 268 271 269 270 272 275 275 277 277 277
255 255 256 254 255 257 258 258 258 263 268 268 258 269 269 266 270 279 278 280 266 262 272 285 286 297 276 266 263 263 264 263 263 262 263 265 266 265 264 265 267 269 268 269 271 274 276 278 280
250 250 252 251 253 255 256 254 257 262 266 265 261 267 268 268 272 273 275 277 267 262 279 282 274 280 297 273 267 264 263 263 264 265 264 264 264 266 266 266 267 268 269 270 272 273 275 277 279
250 249 248 247 250 252 255 255 256 255 259 259 261 263 263 264 269 273 279 273 261 264 285 273 275 274 274 272 271 267 265 264 264 264 265 265 266 266 267 267 268 269 269 271 273 275 277 280 281
254 250 245 246 249 253 253 253 254 255 256 261 259 258 262 264 267 277 274 266 262 276 274 269 268 271 272 270 271 270 268 266 265 265 265 266 267 268 268 267 268 270 272 274 276 277 278 280 280
254 254 252 245 250 250 252 252 251 252 255 257 259 257 256 262 265 264 261 263 267 267 268 268 267 271 276 271 270 271 273 271 267 265 266 266 267 269 270 271 272 274 275 275 276 277 277 278 279
253 255 253 250 248 250 250 253 253 252 253 258 258 254 261 262 262 265 262 259 256 263 265 265 267 270 275 274 271 274 274 275 273 271 267 267 269 270 271 271 272 273 275 275 276 276 277 277 278
250 249 249 246 245 247 249 249 252 250 252 252 250 252 256 257 255 264 257 245 254 266 264 263 263 274 272 273 272 276 278 277 278 278 276 275 273 272 272 272 271 271 272 274 275 275 275 275 276
246 244 242 243 243 243 245 248 250 249 249 248 247 251 249 248 253 245 254 259 256 260 262 265 264 272 268 269 272 275 275 275 277 276 278 280 279 277 275 274 274 274 273 274 274 274 274 275 276
245 244 241 237 238 239 241 245 243 243 243 245 243 245 245 243 239 245 253 255 248 260 260 261 265 268 269 269 272 274 277 274 273 276 280 278 278 277 275 275 275 274 277 278 276 276 276 276 276
242 242 240 239 239 239 238 240 242 238 237 238 239 239 239 241 245 245 260 265 258 252 245 254 266 267 271 268 270 272 270 270 281 282 281 281 279 276 275 275 278 279 278 277 276 277 276 275 276
244 245 243 239 237 237 238 237 239 243 238 236 237 235 237 237 238 236 250 255 249 242 249 257 261 265 268 267 272 272 268 274 279 281 286 285 280 276 274 275 277 278 280 279 276 277 278 278 278
246 242 245 244 241 240 239 238 239 242 241 236 234 232 231 236 234 230 230 234 240 243 259 256 255 254 257 262 267 271 271 275 280 284 287 284 278 277 276 275 278 281 278 278 276 281 280 278 277
249 245 244 244 242 240 240 238 240 240 240 239 237 234 231 232 232 227 229 236 243 264 255 245 254 257 259 266 268 268 272 275 280 283 281 281 282 278 278 278 275 278 281 281 283 281 276 282 287
257 252 247 246 241 239 237 235 240 239 239 240 238 235 237 234 232 230 226 234 244 252 246 262 265 266 264 267 272 274 276 277 281 284 279 280 283 278 278 273 280 287 285 287 286 281 278 285 291
259 256 251 249 248 240 237 232 237 242 238 239 239 238 234 234 235 231 227 234 240 242 245 254 258 261 262 266 268 271 273 275 282 280 281 286 275 275 282 284 282 285 290 291 290 289 291 285 284
261 260 255 257 252 247 239 235 233 237 240 239 240 240 239 231 232 234 229 229 234 240 239 242 253 256 263 266 266 273 274 272 280 284 281 283 277 283 288 287 284 285 286 285 283 283 285 288 288
281 264 254 254 256 254 249 239 236 236 238 236 235 238 239 238 234 234 233 231 234 239 239 239 246 251 253 260 266 274 269 274 281 285 281 280 281 282 284 285 284 284 284 285 278 279 284 283 283
302 288 274 262 256 255 249 238 236 236 237 239 234 233 233 234 235 232 232 234 234 237 236 239 246 252 250 258 267 273 275 271 275 270 267 275 276 274 280 277 278 280 279 279 279 282 284 284 282
6 349 310 284 274 262 252 244 235 229 232 235 235 234 230 230 232 232 229 233 231 235 238 243 252 252 252 257 263 265 263 265 269 270 269 273 276 279 281 279 276 282 283 283 283 283 282 281 281
360 355 346 332 305 284 270 247 246 234 229 230 233 231 231 227 228 231 222 220 223 227 244 247 248 249 251 257 260 263 262 268 270 270 268 270 272 275 280 279 279 280 283 281 282 283 282 282 284
8 0 357 346 329 310 285 255 243 231 230 227 229 228 226 224 223 230 225 219 221 227 234 241 246 247 252 257 263 265 268 270 273 267 265 269 273 277 280 282 283 283 284 284 283 283 285 286 289
4 358 352 345 322 321 314 281 242 228 222 220 224 224 221 221 217 223 226 224 221 224 231 239 238 238 241 254 262 262 265 263 254 266 268 270 275 277 280 282 284 284 283 284 284 287 289 288 288
6 3 3 8 3 356 356 350 217 207 209 211 218 222 219 216 218 217 225 232 225 227 232 241 243 237 247 244 262 257 261 253 260 265 268 273 275 277 278 279 280 282 284 285 287 286 286 287 288
6 7 7 10 4 13 18 58 113 150 181 196 202 208 213 212 210 216 217 224 229 221 230 234 236 238 240 249 238 250 247 258 261 266 271 271 273 276 279 280 280 282 285 286 287 286 285 287 287
11 7 14 17 358 1 23 82 105 147 161 175 181 194 205 204 208 212 215 214 220 223 224 228 235 241 245 243 242 247 253 258 263 266 270 274 276 276 278 280 281 284 284 284 285 285 288 289 289
15 11 10 19 20 350 6 92 124 151 162 163 171 155 186 203 208 212 215 214 215 221 225 227 227 234 239 242 246 251 255 259 263 265 268 271 273 275 277 281 282 283 284 285 287 288 288 289 289
14 17 8 9 36 28 343 6 153 164 152 170 161 155 173 200 210 215 220 223 229 232 235 235 238 241 245 247 250 251 254 258 261 264 269 273 274 275 276 278 280 281 283 284 286 286 286 287 288
Height
10899 10900 10903 10904 10905 10904 10905 10908 10912 10913 10912 10916 10918 10920 10919 10918 10916 10919 10924 10923 10926 10925 10925 10927 10927 10929 10931 10932 10932 10933 10934 10935 10935 10935 10936 10935 10935 10935 10934 10934 10934 10933 10933 10932 10932 10931 10930 10928 10928
10889 10890 10891 10894 10897 10894 10894 10899 10901 10904 10901 10906 10911 10911 10908 10912 10909 10911 10915 10915 10918 10919 10919 10919 10920 10922 10923 10924 10926 10926 10927 10928 10928 10928 10928 10929 10929 10928 10928 10928 10928 10927 10927 10926 10926 10927 10925 10922 10921
10879 10878 10880 10884 10885 10877 10880 10888 10891 10892 10891 10892 10900 10900 10899 10903 10901 10902 10906 10906 10909 10910 10911 10912 10912 10913 10914 10916 10917 10918 10919 10920 10920 10921 10921 10921 10921 10921 10921 10921 10920 10920 10920 10920 10920 10920 10919 10915 10914
10866 10868 10870 10874 10868 10861 10864 10873 10878 10881 10880 10882 10890 10892 10889 10894 10893 10892 10896 10899 10898 10901 10902 10903 10904 10905 10904 10906 10908 10909 10910 10911 10912 10912 10912 10913 10914 10914 10913 10913 10913 10913 10912 10913 10912 10913 10912 10907 10906
10849 10854 10859 10864 10855 10845 10847 10858 10865 10870 10870 10873 10877 10882 10881 10886 10883 10881 10887 10892 10890 10893 10894 10894 10895 10895 10896 10896 10897 10899 10900 10902 10903 10904 10904 10905 10905 10905 10905 10904 10904 10904 10904 10905 10905 10905 10904 10899 10897
10831 10838 10846 10851 10840 10833 10833 10843 10851 10856 10856 10862 10868 10870 10869 10875 10874 10869 10873 10882 10882 10884 10885 10884 10885 10886 10886 10886 10887 10888 10890 10892 10893 10894 10895 10896 10896 10896 10896 10896 10896 10895 10895 10896 10897 10896 10896 10892 10888
10811 10817 10832 10833 10828 10823 10808 10822 10834 10840 10846 10852 10860 10859 10855 10863 10865 10860 10862 10869 10872 10874 10874 10875 10875 10876 10877 10877 10877 10878 10878 10880 10883 10884 10886 10886 10886 10886 10887 10887 10887 10887 10886 10886 10886 10886 10885 10884 10879
10789 10799 10815 10817 10811 10803 10788 10804 10817 10826 10835 10843 10847 10848 10842 10855 10856 10852 10854 10860 10862 10863 10864 10865 10865 10865 10867 10866 10867 10867 10867 10868 10871 10873 10875 10875 10876 10876 10876 10877 10877 10876 10876 10876 10875 10875 10874 10873 10871
10764 10780 10797 10795 10790 10781 10768 10786 10799 10813 10822 10831 10835 10830 10837 10843 10844 10843 10845 10850 10851 10854 10854 10855 10856 10856 10855 10855 10857 10857 10858 10859 10860 10862 10863 10864 10865 10866 10866 10866 10866 10866 10865 10864 10864 10863 10863 10861 10861
10737 10752 10766 10765 10764 10763 10749 10774 10782 10797 10809 10816 10820 10817 10827 10833 10834 10832 10836 10840 10845 10846 10845 10846 10847 10847 10845 10844 10847 10850 10850 10850 10852 10853 10853 10854 10855 10855 10855 10854 10854 10854 10853 10852 10852 10851 10850 10849 10849
10709 10728 10737 10743 10745 10746 10742 10755 10767 10780 10794 10801 10805 10806 10817 10822 10822 10820 10822 10828 10834 10835 10836 10837 10837 10837 10836 10835 10838 10841 10842 10842 10843 10845 10844 10844 10845 10844 10843 10843 10842 10841 10841 10840 10839 10839 10837 10835 10835
10689 10698 10706 10717 10720 10727 10733 10728 10747 10763 10772 10781 10788 10792 10802 10807 10809 10810 10811 10815 10820 10821 10824 10827 10828 10828 10827 10826 10831 10831 10833 10834 10834 10835 10836 10834 10834 10833 10832 10831 10830 10828 10828 10828 10827 10826 10825 10823 10822
10668 10674 10685 10694 10700 10706 10713 10717 10718 10740 10749 10759 10768 10775 10785 10796 10804 10807 10801 10799 10804 10806 10809 10814 10817 10816 10817 10816 10823 10824 10823 10824 10824 10823 10823 10824 10823 10822 10821 10819 10818 10816 10815 10814 10814 10813 10811 10810 10809
10651 10657 10665 10671 10674 10677 10687 10696 10702 10714 10727 10739 10749 10761 10771 10784 10795 10802 10793 10786 10787 10792 10800 10804 10808 10806 10806 10808 10813 10814 10814 10814 10814 10813 10810 10810 10809 10808 10808 10807 10806 10804 10803 10802 10800 10798 10797 10797 10796
10634 10643 10648 10650 10655 10663 10669 10692 10694 10691 10697 10717 10731 10741 10757 10767 10784 10789 10781 10778 10776 10784 10790 10793 10797 10796 10796 10799 10803 10804 10803 10803 10804 10802 10799 10798 10796 10797 10797 10795 10794 10792 10791 10789 10789 10787 10786 10783 10782
10623 10626 10631 10632 10638 10641 10656 10671 10663 10667 10680 10700 10715 10725 10740 10751 10766 10769 10773 10771 10773 10777 10781 10783 10782 10786 10787 10789 10789 10792 10793 10792 10791 10790 10787 10786 10785 10784 10784 10783 10781 10780 10779 10778 10776 10775 10773 10772 10770
10609 10611 10613 10612 10617 10619 10633 10649 10641 10647 10662 10677 10691 10710 10721 10731 10744 10760 10761 10764 10772 10773 10775 10776 10777 10778 10778 10777 10776 10778 10781 10780 10780 10779 10779 10777 10775 10774 10772 10770 10769 10768 10767 10767 10764 10762 10761 10758 10755
10595 10596 10596 10596 10593 10604 10614 10630 10630 10628 10644 10654 10667 10680 10703 10716 10726 10738 10748 10760 10764 10767 10770 10767 10771 10770 10770 10770 10769 10770 10771 10769 10768 10766 10767 10767 10764 10761 10762 10760 10758 10756 10755 10753 10751 10749 10747 10746 10745
10585 10583 10584 10580 10579 10590 10600 10613 10613 10611 10626 10641 10650 10661 10675 10699 10707 10718 10739 10749 10753 10756 10757 10757 10762 10762 10763 10763 10761 10763 10764 10761 10758 10756 10753 10754 10752 10750 10747 10747 10746 10743 10742 10741 10738 10737 10735 10732 10729
10573 10571 10571 10569 10569 10577 10579 10597 10596 10600 10605 10619 10633 10646 10657 10670 10687 10706 10722 10733 10739 10742 10748 10747 10751 10754 10755 10755 10757 10755 10755 10752 10748 10744 10742 10742 10739 10736 10733 10732 10731 10729 10726 10724 10722 10719 10719 10717 10714
10567 10564 10562 10559 10558 10558 10562 10576 10576 10582 10589 10601 10614 10623 10639 10653 10671 10690 10706 10718 10724 10732 10736 10738 10742 10745 10750 10751 10750 10748 10744 10741 10739 10734 10732 10726 10724 10724 10722 10719 10717 10715 10712 10709 10706 10703 10701 10698 10695
10564 10561 10558 10555 10551 10547 10548 10554 10555 10559 10571 10580 10595 10613 10629 10646 10660 10676 10692 10711 10713 10718 10725 10729 10734 10738 10744 10745 10744 10739 10734 10730 10727 10722 10716 10711 10708 10708 10706 10706 10702 10700 10696 10692 10688 10685 10681 10678 10675
10564 10559 10554 10551 10544 10539 10536 10537 10539 10551 10559 10570 10584 10602 10621 10640 10652 10663 10680 10690 10700 10709 10710 10718 10726 10735 10737 10734 10731 10726 10720 10715 10712 10707 10700 10690 10690 10690 10692 10688 10689 10683 10679 10675 10671 10667 10662 10657 10652
10566 10558 10551 10548 10540 10533 10528 10526 10532 10541 10554 10567 10575 10591 10609 10627 10644 10656 10668 10676 10684 10694 10699 10704 10717 10724 10727 10717 10718 10712 10709 10706 10694 10688 10684 10677 10673 10674 10673 10671 10667 10663 10661 10656 10651 10646 10641 10636 10629
10569 10561 10555 10551 10541 10531 10526 10524 10527 10534 10545 10558 10563 10579 10598 10617 10636 10651 10657 10664 10673 10684 10690 10701 10709 10709 10709 10710 10710 10704 10697 10691 10680 10670 10667 10667 10663 10658 10657 10654 10649 10645 10640 10636 10631 10626 10619 10613 10608
10572 10565 10558 10551 10543 10535 10529 10526 10527 10533 10541 10550 10562 10578 10593 10610 10626 10641 10652 10658 10669 10678 10689 10694 10697 10697 10701 10702 10700 10694 10680 10672 10661 10659 10655 10651 10650 10645 10641 10637 10632 10627 10622 10617 10611 10604 10598 10591 10584
10571 10564 10559 10553 10548 10543 10537 10534 10533 10536 10541 10549 10560 10574 10589 10604 10619 10632 10643 10653 10660 10669 10675 10680 10682 10683 10683 10682 10682 10668 10659 10652 10648 10648 10644 10638 10634 10630 10625 10620 10613 10609 10603 10596 10588 10582 10575 10567 10558
10573 10566 10561 10557 10554 10550 10548 10544 10542 10540 10543 10549 10560 10572 10583 10593 10606 10619 10628 10640 10648 10654 10660 10666 10669 10665 10662 10659 10657 10652 10648 10644 10639 10634 10628 10623 10619 10613 10607 10602 10596 10589 10581 10573 10565 10557 10549 10540 10531
10579 10570 10566 10561 10560 10556 10554 10555 10552 10552 10553 10557 10561 10568 10581 10590 10597 10607 10617 10626 10630 10636 10644 10647 10649 10648 10649 10646 10643 10640 10636 10630 10626 10622 10617 10610 10605 10598 10591 10583 10575 10567 10558 10550 10541 10532 10524 10514 10504
10586 10576 10568 10565 10563 10561 10559 10560 10560 10560 10561 10562 10564 10570 10580 10583 10594 10602 10608 10613 10619 10624 10631 10636 10635 10635 10634 10633 10630 10627 10623 10620 10615 10610 10604 10596 10588 10581 10573 10564 10555 10547 10539 10530 10520 10510 10500 10488 10477